SR9WXY Weather Reports


Display with metric or nautical units.
time (UTC)temp
F
wind
direction
speed
MPH
gust
MPH
rain 1hr
in
rain 24hr
in
rain mn
in
humidity
%
barometer
mb
20260506195138 52 0 0.0 0.0 0.00 0.00 0.00 67 875.0
20260506194638 52 0 0.0 0.0 0.00 0.00 0.00 67 875.0
20260506194138 52 0 0.0 0.0 0.00 0.00 0.00 67 875.1
20260506193638 52 354 4.0 30.0 0.00 0.00 0.00 67 875.0
20260506193129 52 0 0.0 0.0 0.00 0.00 0.00 67 875.0
20260506192627 52 0 0.0 0.0 0.00 0.00 0.00 67 875.0
20260506192127 52 0 0.0 0.0 0.00 0.00 0.00 66 874.9
20260506191627 52 0 0.0 0.0 0.00 0.00 0.00 66 875.1
20260506191127 52 0 0.0 0.0 0.00 0.00 0.00 66 875.1
20260506190627 52 1 6.0 49.0 0.00 0.00 0.00 66 875.1
20260506190127 52 0 0.0 10.0 0.00 0.00 0.00 66 875.1
20260506185627 52 0 0.0 0.0 0.00 0.00 0.00 66 875.2
20260506185127 52 1 3.0 20.0 0.00 0.00 0.00 66 875.3
20260506184627 52 0 0.0 0.0 0.00 0.00 0.00 66 875.3
20260506184127 52 0 0.0 0.0 0.00 0.00 0.00 66 875.4
20260506183627 52 0 0.0 0.0 0.00 0.00 0.00 66 875.4
20260506183127 53 0 0.0 0.0 0.00 0.00 0.00 65 875.3
20260506182627 53 0 0.0 0.0 0.00 0.00 0.00 65 875.3
20260506182127 53 0 0.0 0.0 0.00 0.00 0.00 65 875.4
20260506181627 53 0 0.0 0.0 0.00 0.00 0.00 65 875.4
20260506181127 53 0 0.0 0.0 0.00 0.00 0.00 65 875.5
20260506180627 53 0 0.0 0.0 0.00 0.00 0.00 65 875.5
20260506180125 53 0 0.0 0.0 0.00 0.00 0.00 64 875.5
20260506175625 53 0 0.0 0.0 0.00 0.00 0.00 64 875.5
20260506175125 53 0 0.0 7.0 0.00 0.00 0.00 64 875.6
20260506174625 53 0 0.0 0.0 0.00 0.00 0.00 64 875.7
20260506174126 53 0 0.0 0.0 0.00 0.00 0.00 64 875.5
20260506173623 53 0 0.0 0.0 0.00 0.00 0.00 63 875.5
20260506173123 54 0 0.0 0.0 0.00 0.00 0.00 63 875.7
20260506172623 54 0 0.0 0.0 0.00 0.00 0.00 63 875.8
20260506172123 54 0 0.0 0.0 0.00 0.00 0.00 63 875.8
20260506171624 54 0 0.0 0.0 0.00 0.00 0.00 63 875.9
20260506171124 54 0 0.0 0.0 0.00 0.00 0.00 63 875.9
20260506170624 54 0 0.0 0.0 0.00 0.00 0.00 63 875.9
20260506170115 54 0 0.0 0.0 0.00 0.00 0.00 62 875.9
20260506165614 55 0 0.0 0.0 0.00 0.00 0.00 62 876.0
20260506165114 55 0 0.0 0.0 0.00 0.00 0.00 62 875.9
20260506164614 55 0 0.0 0.0 0.00 0.00 0.00 62 876.0
20260506164114 56 0 0.0 0.0 0.00 0.00 0.00 62 876.0
20260506163614 56 0 0.0 0.0 0.00 0.00 0.00 62 876.1
20260506163114 56 0 0.0 0.0 0.00 0.00 0.00 62 876.0
20260506162614 56 0 0.0 0.0 0.00 0.00 0.00 62 876.0
20260506162114 56 0 0.0 0.0 0.00 0.00 0.00 62 875.9
20260506161614 57 0 0.0 0.0 0.00 0.00 0.00 61 876.0
20260506161112 57 0 0.0 0.0 0.00 0.00 0.00 61 876.0
20260506160612 57 0 0.0 0.0 0.00 0.00 0.00 61 876.0
20260506160112 58 0 0.0 0.0 0.00 0.00 0.00 61 876.0
20260506155658 58 0 0.0 0.0 0.00 0.00 0.00 61 876.0
20260506155612 58 0 0.0 0.0 0.00 0.00 0.00 61 876.0
20260506155112 58 0 0.0 0.0 0.00 0.00 0.00 61 876.1
20260506154610 58 0 0.0 0.0 0.00 0.00 0.00 61 876.1
20260506154110 58 0 0.0 0.0 0.00 0.00 0.00 61 876.1
20260506153610 58 0 0.0 0.0 0.00 0.00 0.00 61 876.3
20260506153110 57 0 0.0 0.0 0.00 0.00 0.00 61 876.3
20260506152610 57 0 0.0 0.0 0.00 0.00 0.00 61 876.3
20260506152110 57 0 0.0 0.0 0.00 0.00 0.00 61 876.3
20260506151610 57 355 8.0 30.0 0.00 0.00 0.00 60 876.4
20260506151110 57 3 1.0 20.0 0.00 0.00 0.00 60 876.3
20260506150610 57 0 0.0 0.0 0.00 0.00 0.00 60 876.4
20260506150110 58 0 0.0 0.0 0.00 0.00 0.00 60 876.4
20260506145610 58 0 0.0 0.0 0.00 0.00 0.00 59 876.5
20260506145110 58 0 0.0 0.0 0.00 0.00 0.00 59 876.4
20260506144610 58 0 0.0 0.0 0.00 0.00 0.00 59 876.4
20260506144110 59 0 0.0 0.0 0.00 0.00 0.00 59 876.4
20260506143610 60 0 0.0 0.0 0.00 0.00 0.00 58 876.5
20260506143101 60 3 0.0 1.0 0.00 0.00 0.00 59 876.4
20260506142601 60 0 0.0 0.0 0.00 0.00 0.00 59 876.5
20260506142059 61 0 0.0 0.0 0.00 0.00 0.00 59 876.5
20260506141559 60 0 0.0 0.0 0.00 0.00 0.00 60 876.5
20260506141059 60 0 0.0 0.0 0.00 0.00 0.00 60 876.5
20260506140559 59 0 0.0 0.0 0.00 0.00 0.00 60 876.5
20260506140100 59 0 0.0 0.0 0.00 0.00 0.00 60 876.5
20260506135557 59 0 0.0 0.0 0.00 0.00 0.00 60 876.5
20260506135057 59 0 0.0 0.0 0.00 0.00 0.00 60 876.5
20260506134557 59 0 0.0 0.0 0.00 0.00 0.00 60 876.5
20260506134057 60 0 0.0 0.0 0.00 0.00 0.00 59 876.5
20260506133557 60 0 0.0 0.0 0.00 0.00 0.00 59 876.5
20260506133057 60 0 0.0 0.0 0.00 0.00 0.00 59 876.4
20260506132557 59 0 0.0 0.0 0.00 0.00 0.00 59 876.4
20260506132057 60 0 0.0 0.0 0.00 0.00 0.00 59 876.4
20260506131557 60 0 0.0 0.0 0.00 0.00 0.00 59 876.4
20260506131057 60 0 0.0 0.0 0.00 0.00 0.00 59 876.4
20260506130556 60 0 0.0 0.0 0.00 0.00 0.00 59 876.5
20260506130056 60 0 0.0 0.0 0.00 0.00 0.00 59 876.5
20260506125557 61 0 0.0 0.0 0.00 0.00 0.00 58 876.6
20260506125057 62 0 0.0 0.0 0.00 0.00 0.00 58 876.6
20260506124557 61 0 0.0 0.0 0.00 0.00 0.00 58 876.5
20260506124057 61 0 0.0 0.0 0.00 0.00 0.00 58 876.5
20260506123557 60 0 0.0 0.0 0.00 0.00 0.00 58 876.5
20260506123054 61 0 0.0 0.0 0.00 0.00 0.00 58 876.5
20260506122554 62 0 0.0 0.0 0.00 0.00 0.00 58 876.4
20260506122054 62 0 0.0 0.0 0.00 0.00 0.00 58 876.5
20260506121554 62 0 0.0 0.0 0.00 0.00 0.00 58 876.4
20260506121054 63 0 0.0 0.0 0.00 0.00 0.00 59 876.5
20260506120552 62 0 0.0 0.0 0.00 0.00 0.00 59 876.4
20260506120043 60 0 0.0 0.0 0.00 0.00 0.00 59 876.6
20260506115543 59 0 0.0 0.0 0.00 0.00 0.00 59 876.6
20260506115043 59 0 0.0 0.0 0.00 0.00 0.00 59 876.6
20260506114543 60 0 0.0 0.0 0.00 0.00 0.00 59 876.4
20260506114043 61 0 0.0 0.0 0.00 0.00 0.00 59 876.5
20260506113543 61 0 0.0 0.0 0.00 0.00 0.00 59 876.5
20260506113043 61 0 0.0 0.0 0.00 0.00 0.00 59 876.5
20260506112543 61 0 0.0 0.0 0.00 0.00 0.00 59 876.5
20260506112043 62 0 0.0 0.0 0.00 0.00 0.00 58 876.5
20260506111543 62 0 0.0 0.0 0.00 0.00 0.00 58 876.4
20260506111043 62 0 0.0 0.0 0.00 0.00 0.00 58 876.4
20260506110637 61 0 0.0 0.0 0.00 0.00 0.00 59 876.5
20260506110543 61 0 0.0 0.0 0.00 0.00 0.00 59 876.5
20260506110043 62 0 0.0 0.0 0.00 0.00 0.00 58 876.5
20260506105543 63 0 0.0 0.0 0.00 0.00 0.00 58 876.4
20260506105043 63 0 0.0 0.0 0.00 0.00 0.00 58 876.4
20260506104543 63 0 0.0 0.0 0.00 0.00 0.00 58 876.4
20260506104041 63 0 0.0 0.0 0.00 0.00 0.00 58 876.6
20260506103541 63 0 0.0 0.0 0.00 0.00 0.00 59 876.5
20260506103041 62 0 0.0 0.0 0.00 0.00 0.00 59 876.5
20260506102041 62 0 0.0 0.0 0.00 0.00 0.00 59 876.4
20260506101538 62 0 0.0 0.0 0.00 0.00 0.00 59 876.4
20260506101038 62 0 0.0 0.0 0.00 0.00 0.00 59 876.4
20260506100538 62 0 0.0 0.0 0.00 0.00 0.00 59 876.3
20260506100038 62 0 0.0 0.0 0.00 0.00 0.00 59 876.5
20260506095538 62 0 0.0 0.0 0.00 0.00 0.00 60 876.3
20260506095038 61 0 0.0 0.0 0.00 0.00 0.00 60 876.4
20260506094538 62 0 0.0 0.0 0.00 0.00 0.00 59 876.4
20260506094038 63 0 0.0 0.0 0.00 0.00 0.00 60 876.3
20260506093538 62 0 0.0 0.0 0.00 0.00 0.00 60 876.3
20260506093029 62 0 0.0 0.0 0.00 0.00 0.00 61 876.2
20260506092029 61 0 0.0 0.0 0.00 0.00 0.00 61 876.2
20260506091529 62 0 0.0 0.0 0.00 0.00 0.00 62 876.3
20260506091029 61 0 0.0 0.0 0.00 0.00 0.00 62 876.2
20260506090529 60 0 0.0 0.0 0.00 0.00 0.00 63 876.2
20260506090029 58 0 0.0 0.0 0.00 0.00 0.00 63 876.2
20260506085529 57 0 0.0 0.0 0.00 0.00 0.00 63 876.2
20260506085028 57 0 0.0 0.0 0.00 0.00 0.00 63 876.2
20260506084527 57 0 0.0 0.0 0.00 0.00 0.00 63 876.1
20260506084027 57 0 0.0 0.0 0.00 0.00 0.00 64 876.1
20260506083527 57 0 0.0 0.0 0.00 0.00 0.00 64 876.0
20260506083026 56 0 0.0 0.0 0.00 0.00 0.00 64 875.9
20260506082524 55 0 0.0 0.0 0.00 0.00 0.00 64 875.9
20260506082024 55 0 0.0 0.0 0.00 0.00 0.00 65 875.9
20260506081524 54 0 0.0 0.0 0.00 0.00 0.00 65 875.8
20260506081024 54 0 0.0 0.0 0.00 0.00 0.00 65 875.7
20260506080525 54 0 0.0 0.0 0.00 0.00 0.00 65 875.7
20260506073525 53 0 0.0 0.0 0.00 0.00 0.00 65 875.5
20260506073025 53 0 0.0 0.0 0.00 0.00 0.00 65 875.5
20260506072525 53 0 0.0 0.0 0.00 0.00 0.00 64 875.5
20260506072025 54 0 0.0 0.0 0.00 0.00 0.00 64 875.4
20260506071525 54 0 0.0 0.0 0.00 0.00 0.00 64 875.4
20260506071025 54 0 0.0 0.0 0.00 0.00 0.00 64 875.4
20260506070525 53 0 0.0 0.0 0.00 0.00 0.00 64 875.4
20260506062512 52 0 0.0 0.0 0.00 0.00 0.00 65 875.1
20260506062012 52 0 0.0 0.0 0.00 0.00 0.00 65 875.1
20260506061512 53 0 0.0 0.0 0.00 0.00 0.00 65 875.0
20260506061012 52 0 0.0 0.0 0.00 0.00 0.00 65 874.9
20260506060512 51 0 0.0 0.0 0.00 0.00 0.00 65 874.8
20260506051011 48 0 0.0 0.0 0.00 0.00 0.00 66 874.7
20260506050511 48 0 0.0 0.0 0.00 0.00 0.00 66 874.7
20260506045011 48 0 0.0 0.0 0.00 0.00 0.00 65 874.6
20260506044509 48 0 0.0 0.0 0.00 0.00 0.00 65 874.6
20260506044009 49 0 0.0 0.0 0.00 0.00 0.00 66 874.6
20260506043509 48 0 0.0 0.0 0.00 0.00 0.00 66 874.7
20260506043000 48 0 0.0 0.0 0.00 0.00 0.00 66 874.5
20260506042500 48 0 0.0 0.0 0.00 0.00 0.00 66 874.6
20260506042000 47 0 0.0 0.0 0.00 0.00 0.00 65 874.4
20260506041500 47 0 0.0 0.0 0.00 0.00 0.00 66 874.4
20260506041000 47 0 0.0 0.0 0.00 0.00 0.00 65 874.4
20260506040500 47 0 0.0 0.0 0.00 0.00 0.00 65 874.2
20260506040000 47 0 0.0 0.0 0.00 0.00 0.00 65 874.3
20260506035500 47 0 0.0 0.0 0.00 0.00 0.00 65 874.1
20260506035000 47 0 0.0 0.0 0.00 0.00 0.00 65 874.1
20260506034500 47 0 0.0 0.0 0.00 0.00 0.00 65 874.1
20260506034000 47 0 0.0 0.0 0.00 0.00 0.00 65 874.2
20260506033501 47 0 0.0 0.0 0.00 0.00 0.00 65 874.0
20260506033001 47 0 0.0 0.0 0.00 0.00 0.00 65 874.1
20260506032501 47 0 0.0 0.0 0.00 0.00 0.00 65 874.1
20260506031959 47 0 0.0 0.0 0.00 0.00 0.00 65 874.2
20260506031459 47 0 0.0 0.0 0.00 0.00 0.00 65 874.1
20260506030959 47 0 0.0 0.0 0.00 0.00 0.00 65 874.2
20260506030459 47 0 0.0 0.0 0.00 0.00 0.00 64 874.1
20260506025959 47 0 0.0 0.0 0.00 0.00 0.00 64 874.0
20260506025457 48 0 0.0 0.0 0.00 0.00 0.00 64 874.0
20260506024957 48 0 0.0 0.0 0.00 0.00 0.00 64 873.9
20260506024457 48 0 0.0 0.0 0.00 0.00 0.00 63 874.0
20260506023957 48 0 0.0 0.0 0.00 0.00 0.00 63 873.7
20260506023457 48 0 0.0 0.0 0.00 0.00 0.00 63 873.8
20260506022956 48 0 0.0 0.0 0.00 0.00 0.00 63 873.9
20260506022456 48 0 0.0 0.0 0.00 0.00 0.00 62 874.0
20260506021957 48 0 0.0 0.0 0.00 0.00 0.00 62 873.9
20260506021457 48 0 0.0 0.0 0.00 0.00 0.00 62 874.0
20260506020956 48 0 0.0 0.0 0.00 0.00 0.00 62 874.1
20260506020456 48 0 0.0 0.0 0.00 0.00 0.00 62 874.1
20260506015947 48 0 0.0 0.0 0.00 0.00 0.00 62 874.1
20260506015447 48 0 0.0 0.0 0.00 0.00 0.00 61 874.1
20260506014947 49 0 0.0 0.0 0.00 0.00 0.00 61 874.0
20260506014448 49 0 0.0 0.0 0.00 0.00 0.00 61 874.0
20260506013948 49 0 0.0 0.0 0.00 0.00 0.00 61 874.1
20260506013448 49 0 0.0 0.0 0.00 0.00 0.00 60 874.0
20260506012945 49 0 0.0 0.0 0.00 0.00 0.00 60 874.0
20260506012445 49 0 0.0 0.0 0.00 0.00 0.00 59 873.9
20260506011945 49 0 0.0 0.0 0.00 0.00 0.00 59 873.8
20260506011445 49 0 0.0 0.0 0.00 0.00 0.00 59 873.9
20260506010945 49 0 0.0 0.0 0.00 0.00 0.00 58 873.8
20260506010443 49 0 0.0 0.0 0.00 0.00 0.00 58 873.8
20260506005942 49 0 0.0 0.0 0.00 0.00 0.00 58 873.8
20260506005442 49 0 0.0 0.0 0.00 0.00 0.00 58 873.8
20260506004942 49 0 0.0 0.0 0.00 0.00 0.00 58 873.9
20260506004442 49 0 0.0 0.0 0.00 0.00 0.00 58 874.0
20260506003942 49 0 0.0 0.0 0.00 0.00 0.00 58 874.0
20260506003443 49 0 0.0 0.0 0.00 0.00 0.00 58 874.1
20260506002942 50 0 0.0 0.0 0.00 0.00 0.00 58 874.2
20260506002442 50 0 0.0 0.0 0.00 0.00 0.00 57 874.0
20260506001942 50 0 0.0 0.0 0.00 0.00 0.00 57 874.1
20260506001442 50 0 0.0 0.0 0.00 0.00 0.00 57 874.1
20260506000942 50 0 0.0 0.0 0.00 0.00 0.00 57 874.1
20260506000442 50 0 0.0 0.0 0.00 0.00 0.00 57 874.0
20260505235942 50 0 0.0 0.0 0.00 0.00 0.00 57 873.9
20260505235442 50 0 0.0 0.0 0.00 0.00 0.00 57 874.0
20260505234942 50 0 0.0 0.0 0.00 0.00 0.00 57 874.0
20260505234442 50 0 0.0 0.0 0.00 0.00 0.00 57 874.0
20260505233939 50 0 0.0 0.0 0.00 0.00 0.00 57 873.9
20260505233439 50 0 0.0 0.0 0.00 0.00 0.00 57 874.0
20260505232930 50 0 0.0 0.0 0.00 0.00 0.00 57 874.0
20260505232430 50 0 0.0 0.0 0.00 0.00 0.00 57 874.1
20260505231931 50 0 0.0 0.0 0.00 0.00 0.00 57 874.1
20260505231428 50 0 0.0 0.0 0.00 0.00 0.00 57 874.3
20260505230928 50 0 0.0 0.0 0.00 0.00 0.00 57 874.5
20260505230428 50 0 0.0 0.0 0.00 0.00 0.00 56 874.7
20260505225928 51 0 0.0 0.0 0.00 0.00 0.00 56 874.7
20260505225428 51 0 0.0 0.0 0.00 0.00 0.00 56 874.6
20260505224928 51 0 0.0 0.0 0.00 0.00 0.00 56 874.7
20260505224428 51 0 0.0 0.0 0.00 0.00 0.00 56 874.9
20260505223928 51 0 0.0 0.0 0.00 0.00 0.00 56 874.8
20260505223428 51 0 0.0 0.0 0.00 0.00 0.00 56 874.9
20260505222928 51 0 0.0 0.0 0.00 0.00 0.00 56 875.1
20260505222428 51 0 0.0 0.0 0.00 0.00 0.00 56 875.1
20260505221928 51 0 0.0 0.0 0.00 0.00 0.00 55 875.0
20260505221428 51 0 0.0 0.0 0.00 0.00 0.00 55 875.1
20260505220929 51 0 0.0 0.0 0.00 0.00 0.00 55 875.2
20260505220429 51 0 0.0 0.0 0.00 0.00 0.00 55 875.3
20260505220020 51 0 0.0 0.0 0.00 0.00 0.00 55 875.5
20260505215929 51 0 0.0 0.0 0.00 0.00 0.00 55 875.5
20260505215429 51 0 0.0 0.0 0.00 0.00 0.00 55 875.6
20260505214927 51 0 0.0 0.0 0.00 0.00 0.00 55 875.6
20260505214427 51 0 0.0 0.0 0.00 0.00 0.00 55 875.6
20260505213927 51 0 0.0 0.0 0.00 0.00 0.00 54 875.7
20260505213427 51 0 0.0 0.0 0.00 0.00 0.00 54 875.7
20260505212927 51 0 0.0 0.0 0.00 0.00 0.00 54 875.7
20260505212425 51 0 0.0 0.0 0.00 0.00 0.00 53 875.7
20260505211925 51 0 0.0 0.0 0.00 0.00 0.00 53 875.8
20260505211425 51 0 0.0 0.0 0.00 0.00 0.00 53 875.9
20260505210925 52 0 0.0 0.0 0.00 0.00 0.00 53 875.9
20260505210425 52 0 0.0 0.0 0.00 0.00 0.00 52 875.9
20260505205916 52 0 0.0 0.0 0.00 0.00 0.00 52 876.0
20260505205416 52 0 0.0 0.0 0.00 0.00 0.00 52 876.0
20260505204916 52 0 0.0 0.0 0.00 0.00 0.00 52 876.1
20260505204416 52 0 0.0 0.0 0.00 0.00 0.00 52 876.1
20260505203916 52 0 0.0 0.0 0.00 0.00 0.00 52 876.2
20260505203417 52 0 0.0 0.0 0.00 0.00 0.00 51 876.3
20260505202917 53 0 0.0 0.0 0.00 0.00 0.00 51 876.4
20260505202417 53 0 0.0 0.0 0.00 0.00 0.00 51 876.3
20260505201917 53 0 0.0 0.0 0.00 0.00 0.00 51 876.4
20260505201417 53 0 0.0 0.0 0.00 0.00 0.00 51 876.4
20260505200917 52 0 0.0 0.0 0.00 0.00 0.00 51 876.4
20260505200417 53 0 0.0 0.0 0.00 0.00 0.00 51 876.4
20260505195915 53 0 0.0 0.0 0.00 0.00 0.00 51 876.4